Dane County Regional Truax Field Madison US
ICAO: KMSN
IATA: MSN
Category: Large
Scheduled Services: Yes

Elevation: 887 ft
TransAlt. 18000 ft.

Airport Communications:
MADISON APP:120.1
ATIS:124.65
MADISON CLNC DEL:121.62
CTAF:119.3
MADISON DEP:126.85
MADISON GND:121.9
ARNG OPS:40.8
ANG OPS:138.25
GREEN BAY RDO:122.6
MADISON TWR:119.3
UNICOM:122.95

KMSN Zoom In..

Runways:

(A) RW 03 length 7200 ft width 150 ft
---- / hdg 29

(B) RW 14 length 5846 ft width 150 ft
---- / hdg 136

(C) RW 18 length 9006 ft width 150 ft
ILS 110.10 / hdg 182

(D) RW 21 length 7200 ft width 150 ft
ILS 111.55 / hdg 209

(E) RW 32 length 5846 ft width 150 ft
---- / hdg 316

(F) RW 36 length 9006 ft width 150 ft
ILS 109.90 / hdg 2

Location; KMSN
Day. 23 / Time. 21.53 Zulu
* Altimeter: 30.14
* Temperature: 25° c. 77°f.
* Wind from: VRB° Speed 06 kn.
Dewpoint: 16° c.
Visibility: 10 Statute Miles.
Clouds: Few 12000 ft.
Clouds: Broken 21000 ft.

KMSN 232153Z VRB06KT 10SM FEW120 BKN210 25/16 A3014 RMK AO2 SLP203 T02500161


Wind From VRB°
Speed 06 kn.

 
 
jpsmedia.com for Web Design SOUNDCLOUD worldairports.se 2018   terms of use